Location: Unspecified
(0.0000°N, 0.0000°E)
Time: 22:28:56
(UTC+00:00)

deb Explorer IX - Visible Passes

Search period start: 26 March 2015 00:00
Search period end: 05 April 2015 00:00
Orbit: 551 x 1163 km, 38.8° (Epoch: 26 March)

Date Brightness Start Highest point End Pass type
(mag) Time Alt. Az. Time Alt. Az. Time Alt. Az.
01 Apr ? 19:42:16 10° N 19:43:30 16° N 19:43:30 16° N visible
02 Apr ? 19:29:35 10° NNW 19:32:14 24° NNE 19:32:14 24° NNE visible
03 Apr ? 19:16:55 10° NNW 19:20:44 33° NE 19:20:58 33° NE visible
04 Apr ? 19:04:14 10° NNW 19:08:12 41° NE 19:09:43 31° E visible
